• In Deutschland
  • Länderverzeichnis
  • Für 7 Tage
  • Wassertemperatur
  • Satellitenkarten
  • Wetterkarte
  • Widgets
  • user-avatar
    Anmelden

    Stündliche Wetter Leimen

    Heute, 18 Oktober, Mittwoch

    Zeit Temperatur Niederschläge Wind Luftdruck Luftfeuchtigkeit
    00:00 +15°C° 0 mm 1 m/S 753 mmHg 67%
    01:00 +14°C° 0 mm 1 m/S 753 mmHg 68%
    02:00 +14°C° 0 mm 1 m/S 752 mmHg 69%
    03:00 +14°C° 0 mm 1 m/S 752 mmHg 69%
    04:00 +14°C° 0 mm 1 m/S 752 mmHg 70%
    05:00 +13°C° 0 mm 1 m/S 752 mmHg 70%
    06:00 +13°C° 0 mm 1 m/S 752 mmHg 70%
    07:00 +13°C° 0 mm 1 m/S 752 mmHg 71%
    08:00 +15°C° 0 mm 1 m/S 751 mmHg 65%
    09:00 +18°C° 0 mm 1 m/S 751 mmHg 60%
    10:00 +19°C° 0 mm 1 m/S 751 mmHg 54%
    11:00 +19°C° 0 mm 2 m/S 751 mmHg 51%
    12:00 +21°C° 0 mm 2 m/S 751 mmHg 48%
    13:00 +23°C° 0 mm 2 m/S 751 mmHg 45%
    14:00 +23°C° 0 mm 2 m/S 750 mmHg 47%
    15:00 +22°C° 0 mm 1 m/S 750 mmHg 50%
    16:00 +22°C° 0 mm 1 m/S 750 mmHg 53%
    17:00 +20°C° 0 mm 1 m/S 750 mmHg 57%
    18:00 +19°C° 0 mm 1 m/S 750 mmHg 61%
    19:00 +16°C° 0 mm 1 m/S 750 mmHg 65%
    20:00 +16°C° 0 mm 1 m/S 750 mmHg 66%
    21:00 +15°C° 0 mm 1 m/S 750 mmHg 67%
    22:00 +15°C° 0 mm 1 m/S 750 mmHg 69%
    23:00 +14°C° 0 mm 1 m/S 750 mmHg 70%

    Morgen, 19 Oktober, Donnerstag

    Zeit Temperatur Niederschläge Wind Luftdruck Luftfeuchtigkeit
    00:00 +14°C° 0 mm 1 m/S 750 mmHg 71%
    01:00 +14°C° 0 mm 1 m/S 750 mmHg 72%
    02:00 +13°C° 0 mm 1 m/S 750 mmHg 73%
    03:00 +13°C° 0 mm 1 m/S 750 mmHg 74%
    04:00 +13°C° 0 mm 1 m/S 750 mmHg 75%
    05:00 +13°C° 0 mm 1 m/S 750 mmHg 75%
    06:00 +12°C° 0 mm 1 m/S 750 mmHg 75%
    07:00 +12°C° 0 mm 1 m/S 750 mmHg 75%
    08:00 +14°C° 0 mm 1 m/S 750 mmHg 70%
    09:00 +16°C° 0 mm 1 m/S 750 mmHg 65%
    10:00 +18°C° 0 mm 1 m/S 750 mmHg 59%
    11:00 +20°C° 0 mm 1 m/S 750 mmHg 57%
    12:00 +21°C° 0 mm 1 m/S 750 mmHg 54%
    13:00 +22°C° 0 mm 1 m/S 749 mmHg 51%
    14:00 +22°C° 0 mm 1 m/S 749 mmHg 53%
    15:00 +22°C° 0 mm 1 m/S 749 mmHg 55%
    16:00 +22°C° 0 mm 1 m/S 748 mmHg 57%
    17:00 +20°C° 0 mm 1 m/S 749 mmHg 62%
    18:00 +19°C° 0 mm 1 m/S 749 mmHg 67%
    19:00 +16°C° 0 mm 1 m/S 749 mmHg 72%
    20:00 +16°C° 0 mm 1 m/S 749 mmHg 73%
    21:00 +15°C° 0 mm 1 m/S 749 mmHg 75%
    22:00 +15°C° 0 mm 1 m/S 749 mmHg 77%
    23:00 +14°C° 0 mm 1 m/S 749 mmHg 78%

    übermorgen, 20 Oktober, Freitag

    Zeit Temperatur Niederschläge Wind Luftdruck Luftfeuchtigkeit
    00:00 +14°C° 0 mm 1 m/S 749 mmHg 79%
    01:00 +14°C° 0 mm 1 m/S 749 mmHg 80%
    02:00 +13°C° 0 mm 1 m/S 749 mmHg 81%
    03:00 +13°C° 0 mm 1 m/S 749 mmHg 81%
    04:00 +13°C° 0 mm 1 m/S 749 mmHg 82%
    05:00 +12°C° 0 mm 1 m/S 749 mmHg 83%
    06:00 +12°C° 0 mm 1 m/S 749 mmHg 83%
    07:00 +12°C° 0 mm 1 m/S 749 mmHg 83%
    08:00 +14°C° 0 mm 1 m/S 750 mmHg 77%
    09:00 +15°C° 0 mm 1 m/S 750 mmHg 71%
    10:00 +18°C° 0 mm 1 m/S 750 mmHg 65%
    11:00 +19°C° 0 mm 1 m/S 750 mmHg 61%
    12:00 +19°C° 0 mm 2 m/S 750 mmHg 58%
    13:00 +20°C° 0 mm 2 m/S 750 mmHg 55%
    14:00 +19°C° 0,1 mm 2 m/S 750 mmHg 59%
    15:00 +19°C° 0,1 mm 2 m/S 750 mmHg 63%
    16:00 +19°C° 0,1 mm 1 m/S 750 mmHg 67%
    17:00 +17°C° 0 mm 2 m/S 750 mmHg 70%
    18:00 +16°C° 0 mm 2 m/S 750 mmHg 74%
    19:00 +15°C° 0 mm 2 m/S 751 mmHg 77%
    20:00 +15°C° 0 mm 2 m/S 751 mmHg 79%
    21:00 +15°C° 0 mm 1 m/S 751 mmHg 81%
    22:00 +14°C° 0 mm 1 m/S 751 mmHg 83%
    23:00 +14°C° 0 mm 1 m/S 751 mmHg 83%

    21 Oktober, Samstag

    Zeit Temperatur Niederschläge Wind Luftdruck Luftfeuchtigkeit
    00:00 +14°C° 0 mm 1 m/S 751 mmHg 83%
    01:00 +15°C° 0 mm 1 m/S 751 mmHg 83%
    02:00 +15°C° 0 mm 1 m/S 751 mmHg 82%
    03:00 +15°C° 0 mm 2 m/S 751 mmHg 81%
    04:00 +15°C° 0 mm 2 m/S 751 mmHg 81%
    05:00 +15°C° 0 mm 2 m/S 751 mmHg 81%
    06:00 +14°C° 0 mm 2 m/S 751 mmHg 82%
    07:00 +14°C° 0 mm 2 m/S 750 mmHg 82%
    08:00 +16°C° 0 mm 3 m/S 750 mmHg 77%
    09:00 +17°C° 0 mm 3 m/S 750 mmHg 72%
    10:00 +19°C° 0 mm 3 m/S 750 mmHg 67%
    11:00 +19°C° 0 mm 4 m/S 750 mmHg 64%
    12:00 +20°C° 0 mm 4 m/S 750 mmHg 60%
    13:00 +21°C° 0 mm 5 m/S 750 mmHg 57%
    14:00 +20°C° 0,1 mm 4 m/S 750 mmHg 63%
    15:00 +19°C° 0,1 mm 4 m/S 750 mmHg 70%
    16:00 +18°C° 0,1 mm 3 m/S 751 mmHg 76%
    17:00 +17°C° 0,4 mm 3 m/S 751 mmHg 79%
    18:00 +16°C° 0,4 mm 3 m/S 751 mmHg 82%
    19:00 +16°C° 0,4 mm 3 m/S 752 mmHg 84%
    20:00 +14°C° 0,1 mm 3 m/S 752 mmHg 84%
    21:00 +14°C° 0,1 mm 3 m/S 752 mmHg 83%
    22:00 +13°C° 0,1 mm 3 m/S 752 mmHg 82%
    23:00 +13°C° 0,1 mm 4 m/S 752 mmHg 83%

    22 Oktober, Sonntag

    Zeit Temperatur Niederschläge Wind Luftdruck Luftfeuchtigkeit
    00:00 +13°C° 0,1 mm 4 m/S 752 mmHg 84%
    01:00 +12°C° 0,1 mm 4 m/S 752 mmHg 84%
    02:00 +12°C° 0,1 mm 4 m/S 752 mmHg 84%
    03:00 +11°C° 0,1 mm 4 m/S 752 mmHg 85%
    04:00 +11°C° 0,1 mm 4 m/S 752 mmHg 85%
    05:00 +11°C° 0 mm 4 m/S 752 mmHg 85%
    06:00 +10°C° 0 mm 4 m/S 753 mmHg 84%
    07:00 +10°C° 0 mm 4 m/S 753 mmHg 84%
    08:00 +10°C° 0,1 mm 4 m/S 753 mmHg 82%
    09:00 +11°C° 0,1 mm 4 m/S 753 mmHg 80%
    10:00 +11°C° 0,1 mm 4 m/S 753 mmHg 78%
    11:00 +10°C° 0,1 mm 5 m/S 754 mmHg 76%
    12:00 +10°C° 0,1 mm 5 m/S 754 mmHg 73%
    13:00 +12°C° 0,1 mm 5 m/S 754 mmHg 71%
    14:00 +12°C° 0,1 mm 5 m/S 754 mmHg 72%
    15:00 +10°C° 0,1 mm 5 m/S 754 mmHg 72%
    16:00 +11°C° 0,1 mm 4 m/S 754 mmHg 72%
    17:00 +11°C° 0 mm 4 m/S 755 mmHg 75%
    18:00 +10°C° 0 mm 4 m/S 755 mmHg 79%
    19:00 +9°C° 0 mm 3 m/S 756 mmHg 82%
    20:00 +9°C° 0 mm 3 m/S 756 mmHg 84%
    21:00 +8°C° 0 mm 3 m/S 757 mmHg 85%
    22:00 +8°C° 0 mm 3 m/S 757 mmHg 87%
    23:00 +8°C° 0 mm 2 m/S 757 mmHg 87%

    23 Oktober, Montag

    Zeit Temperatur Niederschläge Wind Luftdruck Luftfeuchtigkeit
    00:00 +7°C° 0 mm 2 m/S 758 mmHg 88%
    01:00 +7°C° 0 mm 2 m/S 758 mmHg 89%
    02:00 +7°C° 0 mm 2 m/S 758 mmHg 90%
    03:00 +6°C° 0 mm 2 m/S 758 mmHg 90%
    04:00 +6°C° 0 mm 2 m/S 759 mmHg 91%
    05:00 +6°C° 0 mm 2 m/S 759 mmHg 91%
    06:00 +6°C° 0 mm 2 m/S 759 mmHg 91%
    07:00 +6°C° 0 mm 2 m/S 759 mmHg 91%
    08:00 +7°C° 0 mm 2 m/S 759 mmHg 86%
    09:00 +8°C° 0 mm 2 m/S 760 mmHg 80%
    10:00 +9°C° 0 mm 2 m/S 760 mmHg 75%
    11:00 +12°C° 0 mm 2 m/S 759 mmHg 70%
    12:00 +12°C° 0 mm 3 m/S 759 mmHg 65%
    13:00 +13°C° 0 mm 3 m/S 759 mmHg 59%
    14:00 +14°C° 0 mm 2 m/S 758 mmHg 61%
    15:00 +14°C° 0 mm 2 m/S 758 mmHg 62%
    16:00 +14°C° 0 mm 2 m/S 758 mmHg 63%
    17:00 +12°C° 0 mm 1 m/S 758 mmHg 68%
    18:00 +11°C° 0 mm 1 m/S 758 mmHg 73%
    19:00 +10°C° 0 mm 1 m/S 759 mmHg 77%
    20:00 +10°C° 0 mm 1 m/S 758 mmHg 78%
    21:00 +9°C° 0 mm 1 m/S 758 mmHg 79%
    22:00 +9°C° 0 mm 1 m/S 758 mmHg 80%
    23:00 +9°C° 0 mm 1 m/S 758 mmHg 80%
    Mehr zeigen